Powrót do katalogu

GLOBALSTAR M034

AktywnyŁącznośćLEO
NORAD 25962·PAYLOAD·🇺🇸 United States

Wystrzelony Nov 22, 1999 z Baikonur Cosmodrome

Loading…

Następne Przeloty (najbliższe 24 godziny)

TLE

ŚwieżeSource: Space-Track

Epoka: Sep 14, 2026, 11:21 UTC

1 25962U 99062B   26257.47335089 -.00000082  00000-0 -24943-4 0  9999
2 25962  51.9857 270.4901 0014179 178.5274 348.2374 11.79460727191994

Śledź GLOBALSTAR M034 w czasie rzeczywistym z AllMySat

Download on the App Store